Location: Alsip
(41.6689°N, 87.7387°W)
Time: 14:59:18
(UTC+00:00)

Terra - Pass Details

Date: 14 July 2020
Orbit: 701 x 703 km, 98.2° (Epoch: 13 August)

Event Time Altitude Azimuth Distance (km) Brightness Sun altitude
Exits shadow 02:18:08 - 97° (E) 2,433 4.1 -9.0°
Reaches altitude 10° 02:19:24 10° 85° (E) 2,172 3.9 -9.2°
Maximum altitude 02:21:22 13° 60° (ENE) 2,004 4.0 -9.5°
Drops below altitude 10° 02:23:21 10° 36° (NE) 2,178 4.4 -9.7°
Sets 02:26:54 0° 8° (N) 3,102 5.7 -10.2°
